BEIJING 1 1 28890U 05043A 26151.19522498 .00000117 00000+0 32130-4 0 9995 2 28890 98.2886 284.3152 0014181 340.1248 19.9399 14.63520320 98162 HUANJING 1A (HJ-1A) 1 33320U 08041A 26151.24176089 .00001678 00000+0 20748-3 0 9991 2 33320 97.6668 137.7366 0018449 189.6775 170.4087 14.83943963955890 HUANJING 1B (HJ-1B) 1 33321U 08041B 26151.20321534 .00001914 00000+0 23776-3 0 9992 2 33321 97.6506 140.9224 0034816 238.0960 121.6866 14.83287712955898 YAOGAN-4 1 33446U 08061A 26150.35666309 .00001214 00000+0 15516-3 0 9995 2 33446 97.9307 83.9995 0015437 125.2711 234.9950 14.83161685943022 DEIMOS-1 1 35681U 09041A 26151.22951931 .00000809 00000+0 12665-3 0 9993 2 35681 97.7378 309.1942 0000514 141.8509 218.2737 14.75218387904382 UK-DMC 2 1 35683U 09041C 26151.21026471 .00001196 00000+0 18087-3 0 9990 2 35683 97.8809 286.5939 0001432 76.3293 283.8076 14.75997195904060 DMC3-FM1 1 40715U 15032A 26151.16619078 .00000686 00000+0 84909-4 0 9994 2 40715 97.6485 17.0076 0006948 104.2184 255.9804 14.85716011587384 DMC3-FM2 1 40716U 15032B 26151.18830457 .00001368 00000+0 16346-3 0 9990 2 40716 97.6540 18.5910 0007481 109.1476 251.0550 14.85723645587387 DMC3-FM3 1 40717U 15032C 26151.21151183 .00001418 00000+0 16931-3 0 9993 2 40717 97.6594 20.3555 0006705 107.6668 252.5280 14.85715206587398